Location: Saluda
(35.2377°N, 82.3468°W)
Time: 20:13:48
(UTC+00:00)

Vanguard 1 Rocket - Visible Passes

Search period start: 02 March 2024 00:00
Search period end: 12 March 2024 00:00
Orbit: 653 x 4219 km, 34.3° (Epoch: 01 March)

Date Brightness Start Highest point End Pass type
(mag) Time Alt. Az. Time Alt. Az. Time Alt. Az.
02 Mar 11.2 08:36:24 15° SSW 08:55:17 35° SE 09:13:05 10° E visible
02 Mar 10.5 11:01:05 10° SW 11:26:19 66° SSE 11:41:43 10° E visible
03 Mar 11.5 07:29:43 18° SSE 07:40:39 24° SE 07:57:02 10° E visible
03 Mar 10.8 09:47:03 11° SW 10:11:19 55° SSE 10:29:02 10° E visible
04 Mar 11.7 06:22:50 13° SE 06:26:24 13° SE 06:35:37 10° ESE visible
04 Mar 11.1 08:40:08 23° SSW 08:56:14 43° SE 09:15:22 10° E visible
04 Mar 10.5 11:01:52 10° WSW 11:27:41 73° SSE 11:43:37 10° E visible
05 Mar 11.3 07:33:04 26° SSE 07:41:28 30° SE 08:00:06 10° E visible
05 Mar 10.7 09:50:21 17° SW 10:12:27 62° SSE 10:30:56 10° ENE visible
06 Mar 11.5 06:25:50 18° SE 06:27:12 19° SE 06:41:39 10° E visible
06 Mar 10.9 08:43:06 30° SSW 08:57:09 50° SE 09:17:24 10° ENE visible
06 Mar 10.5 11:02:50 10° WSW 11:29:04 79° SSE 11:45:28 10° E visible
07 Mar 11.0 07:35:43 33° SSE 07:42:10 37° SE 08:02:34 10° E visible
07 Mar 10.6 09:52:59 21° SW 10:13:35 69° SSE 10:32:44 10° ENE visible
08 Mar 11.3 06:28:12 24° SE 06:28:12 24° SE 06:45:29 10° E visible
08 Mar 10.8 08:45:27 36° SSW 08:58:01 57° SSE 09:19:15 10° ENE visible
08 Mar 10.5 11:03:59 10° WSW 11:30:28 83° SSE 11:47:18 10° E visible
09 Mar 11.8 05:20:35 11° ESE 05:20:35 11° ESE 05:22:27 10° ESE visible
09 Mar 10.8 07:37:49 41° SSE 07:42:50 44° SE 08:04:40 10° ENE visible
09 Mar 10.6 09:55:03 24° WSW 10:14:45 75° SSE 10:34:30 10° E visible
10 Mar 11.2 06:30:05 30° SE 06:30:05 30° SE 06:48:21 10° E visible
10 Mar 10.6 08:47:18 42° SSW 08:58:56 64° SSE 09:20:59 10° ENE visible
10 Mar 10.5 11:05:14 10° WSW 11:31:55 86° S 11:49:08 10° E visible
11 Mar 11.6 05:22:15 15° ESE 05:22:15 15° ESE 05:28:35 10° E visible
11 Mar 10.7 07:39:27 48° SSE 07:43:30 51° SE 08:06:31 10° ENE visible
11 Mar 10.5 09:56:40 26° WSW 10:15:58 80° SSE 10:36:14 10° E visible
